Location: Gälforsberget
(66.6500°N, 22.4167°E)
Time: 15:14:18
(UTC+00:00)

Cosmos 1455 Rocket - Pass Details

Date: 11 April 2026
Orbit: 598 x 622 km, 82.5° (Epoch: 17 May)

Event Time Altitude Azimuth Distance (km) Brightness Sun altitude
Exits shadow 23:07:07 23° 172° (S) 1,329 4.2 -14.5°
Maximum altitude 23:09:43 59° 100° (E) 727 3.4 -14.4°
Drops below altitude 10° 23:14:06 10° 22° (NNE) 2,009 7.0 -14.3°
Sets 23:16:21 0° 19° (NNE) 2,921 8.4 -14.3°
